Hourly Data Report for October 08, 2016

All times are specified in Local Standard Time (LST). Add 1 hour to adjust for Daylight Saving Time where and when it is observed.

OTTAWA INTL A
ONTARIO

45°19'00.000" N
75°40'00.000" W
114.90 m
6106001
71628
YOW

Download Data

Hourly Data (October 2016)
Hourly Data Report for October 8, 2016
Temp Definition
°C
Dew Point Temp Definition
°C
Rel Hum Definition
%
Wind Dir Definition
10's deg

Wind Spd Definition
km/h
Visibility Definition
km
Stn Press Definition
kPa
Hmdx Definition


Wind Chill Definition


Weather Definition


TIME
00:00 Legend Double Dagger 15.6 11.6 77 18 10 24.1 100.28     LegendNANA
01:00 Legend Double Dagger 15.0 11.4 79 17 11 24.1 100.24     Clear
02:00 Legend Double Dagger 14.5 11.5 82 17 10 24.1 100.17     LegendNANA
03:00 Legend Double Dagger 15.8 12.0 78 19 16 24.1 100.12     LegendNANA
04:00 Legend Double Dagger 16.2 12.2 77 18 16 24.1 100.11     Mostly Cloudy
05:00 Legend Double Dagger 16.6 12.8 78 18 15 24.1 100.10     LegendNANA
06:00 Legend Double Dagger 16.7 13.5 81 18 16 24.1 100.12     LegendNANA
07:00 Legend Double Dagger 16.7 14.4 86 19 22 24.1 100.11     Cloudy
08:00 Legend Double Dagger 16.4 15.3 93 20 20 9.7 100.13     Rain,Fog
09:00 Legend Double Dagger 16.2 16.1 99 28 11 2.4 100.14     Rain,Fog
10:00 Legend Double Dagger 15.8 15.3 97 24 8 4.8 100.09     Rain,Fog
11:00 Legend Double Dagger 15.7 15.4 98 20 5 12.9 100.01     Rain
12:00 Legend Double Dagger 11.5 9.3 86 29 30 16.1 100.02     Rain
13:00 Legend Double Dagger 11.0 8.9 87 26 13 24.1 100.02     Mostly Cloudy
14:00 Legend Double Dagger 12.2 9.4 83 29 17 24.1 100.03     LegendNANA
15:00 Legend Double Dagger 15.0 9.0 67 30 18 24.1 100.05     LegendNANA
16:00 Legend Double Dagger 14.9 6.8 58 30 18 24.1 100.08     Mainly Clear
17:00 Legend Double Dagger 13.3 7.1 66 26 9 24.1 100.13     LegendNANA
18:00 Legend Double Dagger 12.8 7.5 70 20 6 24.1 100.16     LegendNANA
19:00 Legend Double Dagger 12.2 8.7 79 18 11 24.1 100.21     Mostly Cloudy
20:00 Legend Double Dagger 12.1 9.3 83 22 7 24.1 100.29     LegendNANA
21:00 Legend Double Dagger 11.7 6.5 70 30 17 24.1 100.37     LegendNANA
22:00 Legend Double Dagger 10.8 7.2 78 28 13 24.1 100.41     Mostly Cloudy
23:00 Legend Double Dagger 9.3 6.9 85 27 13 24.1 100.44     LegendNANA

Notes on Data Quality.

Legend

  • E = Estimated
  • M = Missing
  • NA = Not Available
  • ‡ = Partner data that is not subject to review by the National Climate Archives
Date modified: